Raton, NM

9:11 AM MST on November 20, 2017 (GMT -0700)
Raton Municipal-Crews

Weather History for KRTN - April, 2013

Change the Weather History Date:

Friday, April 5, 2013

  Actual Average (KTAD) Record (KTAD)
Temperature  
Mean Temperature 55 °F -  
Max Temperature 75 °F 63 °F 82 °F (1954)
Min Temperature 37 °F 29 °F 12 °F (1983)
Degree Days  
Heating Degree Days 10    
Growing Degree Days 5 (Base 50)    
Moisture  
Dew Point 16 °F    
Average Humidity 25    
Maximum Humidity 43    
Minimum Humidity 8    
Precipitation  
Precipitation 0.00 in - - ()
Sea Level Pressure  
Sea Level Pressure 29.83 in    
Wind  
Wind Speed 9 mph (West)    
Max Wind Speed 28 mph    
Max Gust Speed 46 mph    
Visibility 10 miles    
Events      
Averages and records for this station are not official NWS values.
T = Trace of Precipitation, MM = Missing Value Source: NWS Daily Summary

Daily Weather History Graph

Daily Weather History Graph

Search for Another Location

Airport or City:

Trip Planner

Search our weather history database for the weather conditions in past years. The results will help you decide how hot, cold, wet, or windy it might be!

Date:

Astronomy

Apr. 05, 2013 Rise Set
Actual Time 6:37 AM MDT 7:24 PM MDT
Civil Twilight 6:11 AM MDT 7:50 PM MDT
Nautical Twilight 5:40 AM MDT 8:21 PM MDT
Astronomical Twilight 5:08 AM MDT 8:53 PM MDT
Moon 3:39 AM MDT (4/5) 2:57 PM MDT (4/5)
Length of Visible Light 13h 38m
Length of Day
12h 46m
Waning Crescent, 23% of the Moon is Illuminated
Apr 5
Waning Crescent
Apr 10
New
Apr 18
First Quarter
Apr 25
Full
May 2
Last Quarter

Hourly Weather History & Observations

Time (MDT) Temp. Windchill Dew Point Humidity Pressure Visibility Wind Dir Wind Speed Gust Speed Precip Events Conditions
12:53 AM 46.0 °F 43.1 °F 15.1 °F 29% 29.98 in 10.0 mi WSW 5.8 mph - N/A   Clear
1:53 AM 43.0 °F 39.5 °F 15.1 °F 32% 29.99 in 10.0 mi WSW 5.8 mph - N/A   Clear
2:53 AM 43.0 °F 40.3 °F 16.0 °F 34% 29.96 in 10.0 mi West 4.6 mph - N/A   Clear
3:53 AM 39.9 °F 35.8 °F 16.0 °F 38% 29.96 in 10.0 mi WNW 5.8 mph - N/A   Clear
4:53 AM 37.9 °F 32.7 °F 17.1 °F 43% 29.96 in 10.0 mi NNW 6.9 mph - N/A   Clear
5:53 AM 39.0 °F 34.0 °F 17.1 °F 41% 29.95 in 10.0 mi NNW 6.9 mph - N/A   Clear
6:53 AM 39.0 °F 34.8 °F 17.1 °F 41% 29.96 in 10.0 mi NNW 5.8 mph - N/A   Clear
7:53 AM 41.0 °F 39.0 °F 19.0 °F 41% 29.99 in 10.0 mi North 3.5 mph - N/A   Clear
8:53 AM 44.1 °F 42.5 °F 19.0 °F 37% 29.97 in 10.0 mi ENE 3.5 mph - N/A   Clear
9:53 AM 50.0 °F - 18.0 °F 28% 29.93 in 10.0 mi Calm Calm - N/A   Clear
10:53 AM 55.9 °F - 17.1 °F 22% 29.91 in 10.0 mi Variable 4.6 mph - N/A   Clear
11:53 AM 64.0 °F - 14.0 °F 14% 29.84 in 10.0 mi SSW 11.5 mph 17.3 mph N/A   Clear
12:53 PM 73.0 °F - 8.1 °F 8% 29.74 in 10.0 mi SW 16.1 mph 27.6 mph N/A   Clear
1:53 PM 73.9 °F - 9.0 °F 8% 29.71 in 10.0 mi WSW 26.5 mph 39.1 mph N/A   Clear
2:53 PM 73.0 °F - 16.0 °F 11% 29.70 in 10.0 mi WSW 27.6 mph 46.0 mph N/A   Clear
3:53 PM 71.1 °F - 16.0 °F 12% 29.69 in 10.0 mi WSW 20.7 mph 32.2 mph N/A   Clear
4:53 PM 71.1 °F - 15.1 °F 12% 29.67 in 10.0 mi SW 20.7 mph 34.5 mph N/A   Clear
5:53 PM 71.1 °F - 12.0 °F 10% 29.65 in 10.0 mi SSW 18.4 mph 31.1 mph N/A   Clear
6:53 PM 66.9 °F - 12.0 °F 12% 29.68 in 10.0 mi West 15.0 mph 21.9 mph N/A   Clear
7:53 PM 62.1 °F - 14.0 °F 15% 29.70 in 10.0 mi West 13.8 mph - N/A   Partly Cloudy
8:53 PM 55.0 °F - 17.1 °F 23% 29.74 in 10.0 mi SW 11.5 mph - N/A   Partly Cloudy
9:53 PM 54.0 °F - 21.9 °F 29% 29.74 in 10.0 mi West 5.8 mph - N/A   Clear
10:53 PM 45.0 °F 41.8 °F 19.0 °F 36% 29.75 in 10.0 mi NNW 5.8 mph - N/A   Clear
11:53 PM 55.0 °F - 19.0 °F 24% 29.68 in 10.0 mi SSW 3.5 mph - N/A   Clear